This is the latest recevied weather packets stored in our database for station/object WS4FSC-7. If no packets are shown the sender has not sent any weather packets the latest 10 day(s).
| Time | Temp. | Humidity | Pressure | Rain* | Wind** | Luminosity | Snow |
|---|---|---|---|---|---|---|---|
| 1787846211 | 32.78° C | 70% | 1016 hPa | - | - | 909 W/m² | - |
| 1787846031 | 32.78° C | 68% | 1016 hPa | - | - | 900 W/m² | - |
| 1787845671 | 32.78° C | 69% | 1017 hPa | - | - | 869 W/m² | - |
| 1787845491 | 32.78° C | 69% | 1016 hPa | - | - | 846 W/m² | - |
| 1787845131 | 32.22° C | 70% | 1016 hPa | - | - | 831 W/m² | - |
| 1787844771 | 32.22° C | 70% | 1016 hPa | - | - | 381 W/m² | - |
| 1787844410 | 32.78° C | 69% | 1016 hPa | - | - | 806 W/m² | - |
| 1787843870 | 32.78° C | 68% | 1016 hPa | - | - | 808 W/m² | - |
| 1787843690 | 32.78° C | 68% | 1016 hPa | - | - | 784 W/m² | - |
| 1787843511 | 32.22° C | 69% | 1016 hPa | - | - | 166 W/m² | - |
| 1787843151 | 32.22° C | 69% | 1016 hPa | - | - | 713 W/m² | - |
| 1787842971 | 32.78° C | 67% | 1016 hPa | - | - | 714 W/m² | - |
| 1787842791 | 32.78° C | 65% | 1016 hPa | - | - | 716 W/m² | - |
| 1787841891 | 32.78° C | 69% | 1016 hPa | - | - | 351 W/m² | - |
| 1787841711 | 32.78° C | 69% | 1016 hPa | - | - | 689 W/m² | - |
| 1787841351 | 32.22° C | 71% | 1016 hPa | - | - | 710 W/m² | - |
| 1787840811 | 32.22° C | 70% | 1016 hPa | - | - | 719 W/m² | - |
| 1787840271 | 31.67° C | 72% | 1016 hPa | - | - | 671 W/m² | - |
| 1787839730 | 31.11° C | 73% | 1016 hPa | - | - | 398 W/m² | - |
| 1787839550 | 31.11° C | 73% | 1016 hPa | - | - | 440 W/m² | - |
| 1787839370 | 31.67° C | 72% | 1016 hPa | - | - | 116 W/m² | - |
| 1787837931 | 31.67° C | 74% | 1016 hPa | - | - | 535 W/m² | - |
| 1787837751 | 31.11° C | 75% | 1016 hPa | - | - | 518 W/m² | - |
| 1787837710 | 31.11° C | 75% | 1016 hPa | - | - | 471 W/m² | - |
| 1787837570 | 31.11° C | 75% | 1016 hPa | - | - | 471 W/m² | - |
* Rain since midnight (hover to see other rain measurements)
** Current wind speed in m/s (hover to see current wind gust speed)